Lapse_Rate
7.4 7.3 8.1 8.1 8.2 8.0 8.3 8.3 8.7 8.5 8.3 8.2 7.9 7.7 7.6 7.9 7.5 7.2 6.9 7.1 7.1 6.6 6.4 6.1 5.9 5.8 5.9 5.7 5.8 5.9 6.5 6.6 6.4 6.3 6.4 6.1 5.8 5.7 6.0 5.9 6.1 5.9 5.5 5.8
7.5 7.3 8.5 7.9 8.3 8.0 8.0 8.3 8.4 8.2 8.4 8.0 7.7 7.7 7.8 7.7 8.2 7.9 7.4 7.2 7.1 6.7 6.2 6.4 6.1 6.0 5.9 5.9 5.8 5.8 6.4 6.6 6.4 6.3 6.3 6.0 5.9 5.9 6.0 5.8 5.9 6.0 5.8 5.7
7.7 8.1 8.3 8.0 8.4 8.4 8.3 8.4 8.7 8.7 8.4 7.9 8.0 7.7 7.6 7.6 7.2 7.3 7.5 7.2 6.9 7.0 6.7 6.5 6.5 6.4 6.2 6.3 6.1 5.9 6.3 6.8 6.7 6.5 6.5 6.3 6.1 5.9 6.1 5.9 5.7 5.8 5.6 5.7
7.8 8.4 8.3 8.2 8.4 8.4 8.6 8.7 8.8 8.6 8.6 8.1 8.0 7.7 7.9 7.7 7.2 7.5 7.6 7.5 7.1 7.1 6.9 6.7 6.7 6.7 6.5 6.8 6.4 6.2 6.2 6.5 6.6 6.5 6.5 6.4 6.3 6.2 6.2 5.9 5.8 5.7 5.5 5.7
7.8 8.0 8.3 8.4 8.7 8.6 8.9 8.9 8.7 8.8 9.0 8.4 8.0 7.5 8.7 7.9 7.7 8.1 8.1 7.9 7.2 7.3 6.9 7.0 7.2 7.0 7.0 6.7 6.6 6.5 6.3 6.3 6.6 6.5 6.3 6.3 6.3 6.1 6.1 5.9 5.8 5.9 5.9 5.7
7.7 7.9 8.0 8.1 8.8 8.9 9.0 8.9 8.4 8.5 8.5 7.5 8.3 7.8 8.5 8.7 8.9 8.7 8.3 7.8 7.5 7.6 7.3 7.0 7.3 7.1 7.1 7.0 7.1 6.8 6.6 6.4 6.7 6.6 6.5 6.4 6.4 6.3 6.4 6.3 6.1 6.2 6.0 5.8
7.6 7.9 8.2 8.2 8.7 8.8 9.2 8.7 8.1 7.5 6.8 6.9 8.8 7.8 8.5 9.1 8.6 8.6 8.7 8.2 7.9 7.7 7.6 7.0 7.2 7.5 7.3 7.1 7.1 7.1 6.9 6.5 6.5 6.8 6.5 6.4 6.5 6.4 6.5 6.3 6.1 6.0 6.0 5.9
7.7 8.2 8.4 8.5 8.8 9.1 9.3 9.3 8.7 7.4 5.8 7.4 8.6 8.1 9.0 9.0 9.0 8.9 8.4 8.1 7.8 7.8 7.8 7.4 7.4 7.6 7.6 7.3 7.1 7.1 7.2 6.9 7.0 7.1 6.8 6.6 6.4 6.4 6.4 6.2 6.0 6.0 6.1 6.2
7.6 8.1 8.6 9.0 9.1 8.9 8.7 8.6 9.2 9.1 8.2 8.1 8.7 9.3 9.4 9.3 9.2 8.8 8.2 8.1 8.0 7.7 7.8 7.9 7.8 7.8 7.8 7.8 7.5 7.1 7.4 7.6 7.3 7.4 7.3 6.9 6.5 6.3 6.2 6.3 6.1 6.1 6.1 6.1
8.0 8.2 8.7 9.2 9.1 9.1 9.1 9.3 9.2 8.9 7.7 7.8 8.2 8.7 9.3 9.3 9.4 8.6 8.3 8.7 8.5 7.8 7.9 7.9 7.9 7.7 8.1 8.3 8.1 7.5 7.4 8.0 7.7 7.5 7.2 6.8 6.5 6.1 5.9 6.3 6.3 6.3 6.3 6.4
8.4 8.3 8.7 9.1 9.2 9.3 9.3 9.2 9.0 8.8 8.8 6.8 6.3 8.3 9.3 9.3 9.4 9.0 8.6 8.8 8.8 8.4 8.3 8.2 8.0 7.7 8.1 8.7 8.5 8.4 7.9 8.2 8.0 7.7 7.5 7.2 6.6 6.0 5.8 6.6 6.7 6.6 6.7 6.7
9.3 8.8 8.9 9.2 9.3 9.3 9.3 9.2 9.4 9.1 8.4 8.6 8.3 8.6 9.4 9.3 9.3 9.2 8.8 9.0 8.9 8.8 8.9 8.7 8.2 8.0 8.0 8.1 7.9 7.8 5.4 7.9 8.2 7.9 7.8 7.6 7.2 7.2 6.9 7.0 6.9 6.8 6.6 6.6
9.4 9.0 9.0 9.1 9.3 9.2 9.2 9.2 9.1 9.3 9.2 9.2 8.3 8.7 9.3 9.4 9.3 9.1 8.8 9.0 9.0 8.9 9.0 8.9 8.5 8.5 8.2 8.2 7.9 7.1 7.3 7.6 7.9 7.9 8.0 7.8 7.6 7.8 7.6 7.6 7.4 7.1 7.0 6.8
9.5 9.6 9.2 9.0 9.2 9.1 9.0 9.1 9.3 9.3 9.3 9.2 8.9 9.0 9.4 9.4 9.2 9.2 9.2 9.1 9.0 8.9 8.9 8.9 8.8 8.3 8.2 8.4 8.2 7.2 7.2 8.2 8.3 8.3 8.1 8.0 7.7 7.7 7.8 7.7 7.6 7.5 7.2 7.0
9.4 9.4 9.5 9.1 9.1 9.1 9.0 9.0 9.2 9.3 9.4 9.2 9.1 9.3 9.3 9.4 9.2 9.3 9.2 9.1 9.0 8.9 8.6 8.6 8.7 8.4 8.5 8.4 8.3 8.0 7.8 8.1 8.4 8.3 8.2 7.9 7.7 7.4 7.3 7.6 7.6 7.3 7.1 6.9
9.4 9.2 9.1 8.8 8.8 9.1 9.1 9.1 9.3 9.4 9.3 9.3 9.2 9.5 9.4 9.4 9.5 9.4 9.4 9.3 9.2 9.0 8.9 8.8 8.8 8.6 8.7 8.5 8.3 7.5 6.8 8.1 8.5 8.5 8.2 7.9 7.5 7.3 6.9 6.8 7.0 7.2 6.9 6.6
9.1 8.9 8.7 8.6 8.8 9.0 9.2 9.2 9.3 9.1 9.2 9.4 9.4 9.5 9.6 9.5 9.3 9.4 9.4 9.3 9.3 9.1 8.9 9.0 9.1 9.0 8.8 8.7 8.2 7.8 6.2 7.8 8.5 8.6 8.2 8.0 7.6 7.4 7.1 6.8 6.6 6.6 6.5 6.4
8.4 8.6 8.7 8.7 8.7 8.1 9.1 9.1 9.2 9.2 9.4 9.4 9.5 9.6 9.7 9.5 9.6 9.6 9.5 9.4 9.4 9.1 8.9 8.9 9.0 9.0 8.9 8.7 8.2 7.8 6.1 7.7 8.6 8.5 8.5 8.2 7.8 7.4 7.0 6.8 6.7 6.6 6.6 6.7
8.5 8.5 8.7 8.7 8.6 8.6 9.0 9.1 9.2 9.1 9.3 9.5 9.5 9.6 9.6 9.4 9.4 9.5 9.3 9.3 9.3 9.0 8.9 8.9 8.9 9.0 8.8 8.6 8.3 8.0 7.7 8.0 8.3 8.3 8.2 7.9 7.7 7.4 7.1 6.9 6.8 6.7 6.6 6.5
8.7 8.4 8.7 8.8 8.8 8.2 8.8 9.0 9.1 9.0 9.1 9.2 9.4 9.6 9.6 9.7 9.4 9.2 9.2 9.1 9.0 8.8 8.7 8.8 8.8 8.8 8.8 8.3 8.4 8.1 7.8 8.1 8.0 8.3 8.0 7.7 7.4 7.1 6.9 6.6 6.4 6.4 6.4 6.4
8.5 8.7 8.7 8.9 8.9 8.9 8.8 9.0 9.0 8.8 9.0 9.1 9.3 9.5 9.5 9.6 9.5 9.5 9.4 9.2 9.3 9.1 8.9 8.9 8.9 8.6 8.5 8.3 8.2 8.0 8.2 8.2 8.1 8.0 7.9 7.7 7.4 7.1 6.8 6.6 6.4 6.5 6.4 6.2
8.2 8.6 8.8 8.7 8.7 9.1 8.9 8.7 9.0 9.0 9.1 9.1 9.3 9.2 9.3 9.4 9.4 9.5 9.4 9.5 9.6 9.1 8.8 9.1 9.3 8.6 8.4 8.5 7.8 7.9 8.2 8.1 8.2 8.0 7.8 7.6 7.3 6.9 6.6 6.6 6.5 6.3 6.1 5.9
7.8 8.2 8.7 8.8 8.6 8.9 8.8 8.7 8.9 9.0 9.2 9.1 9.1 9.0 9.1 9.3 9.4 9.2 9.1 9.0 8.8 8.5 8.5 7.7 7.1 8.6 8.9 8.6 7.9 7.9 8.1 8.1 8.1 8.1 8.1 7.5 7.2 6.9 6.6 6.5 6.3 6.2 6.1 5.9
7.7 8.1 8.3 8.4 8.4 8.7 8.6 8.4 8.3 8.5 8.9 9.0 9.1 9.0 8.8 8.9 9.4 9.2 8.9 8.6 8.5 8.2 8.5 8.3 8.2 8.5 8.6 8.5 8.4 7.9 8.0 8.3 8.1 7.9 7.7 7.4 7.2 7.0 6.6 6.5 6.4 6.2 6.0 5.7
7.1 7.3 7.6 8.0 8.3 8.6 8.7 8.4 8.5 8.6 8.6 8.9 9.0 9.0 8.7 8.5 9.0 9.0 8.7 8.5 8.3 9.0 7.6 6.4 7.6 8.2 8.2 8.4 8.0 7.7 7.8 7.6 7.6 7.5 7.5 7.4 7.1 6.8 6.6 6.5 6.4 6.2 5.9 5.8
6.9 7.1 7.3 7.6 7.9 8.3 8.4 8.3 8.3 8.5 8.6 8.6 8.6 9.0 8.8 8.4 8.5 8.4 8.5 8.3 8.3 8.6 6.3 6.0 6.6 8.1 8.2 8.3 7.7 7.4 7.5 7.0 7.3 7.1 7.0 6.9 7.1 6.6 6.6 6.5 6.2 5.9 5.8 5.8
Wind_Speed
2 4 7 10 9 4 4 2 3 5 2 1 2 3 15 17 15 15 14 13 13 13 12 11 13 15 12 10 11 10 9 8 6 3 3 2 3 2 3 3 5 4 5 4
5 6 7 6 5 5 5 3 3 3 6 3 3 1 8 18 21 20 19 16 16 14 8 9 10 13 14 14 13 11 11 8 7 4 3 2 2 2 0 1 6 4 8 6
6 6 10 6 5 6 3 7 5 5 7 3 3 5 6 6 8 11 14 16 15 13 9 9 10 12 12 13 14 14 13 11 7 5 4 3 3 2 1 2 3 4 9 9
5 4 7 6 5 6 7 10 7 8 6 4 5 5 7 6 7 11 13 11 12 9 9 12 12 12 14 15 15 13 13 11 9 7 6 5 4 3 3 3 3 4 8 8
8 1 3 4 8 9 11 11 13 8 4 3 2 2 8 4 15 16 14 16 14 11 11 14 16 17 18 15 14 13 12 11 10 10 9 8 4 4 1 2 5 4 3 6
8 1 4 8 3 15 4 7 7 6 3 2 7 7 10 8 20 19 10 16 17 12 13 14 16 13 12 9 9 11 13 12 10 9 8 9 8 6 3 3 3 4 3 3
5 4 3 4 4 2 7 8 3 3 2 7 6 5 17 8 7 17 22 18 19 15 14 15 13 12 12 14 12 11 12 13 10 10 9 9 8 7 7 6 4 5 3 3
6 5 8 4 8 9 8 9 6 7 5 5 6 7 10 6 8 9 14 19 19 18 16 18 17 17 17 17 15 14 14 12 12 10 9 7 8 5 5 5 4 4 4 4
6 5 5 3 2 8 4 2 4 8 3 3 4 7 10 5 6 6 9 16 20 21 16 18 17 16 17 16 17 17 15 14 12 13 7 7 6 7 6 7 4 3 4 4
7 0 4 4 3 1 5 8 4 3 4 4 5 5 6 5 7 8 9 15 18 17 17 14 15 16 16 16 17 16 13 16 13 12 11 9 9 7 7 6 6 6 5 4
6 3 5 0 4 6 2 0 6 5 4 6 2 6 8 11 11 16 13 12 15 15 14 13 11 14 13 10 7 6 8 8 7 10 8 7 6 8 6 6 6 6 4 5
8 5 4 10 3 2 4 7 6 5 4 1 4 7 3 11 12 13 13 13 13 14 13 12 9 10 11 14 13 10 7 3 4 6 7 8 7 7 6 6 6 6 6 5
9 1 2 10 7 3 4 3 6 6 4 6 5 7 5 5 6 8 13 9 14 13 8 9 9 11 21 19 19 8 18 10 6 7 7 7 7 7 7 7 6 5 5 5
8 4 7 7 8 3 3 2 5 7 4 5 7 7 8 8 8 9 8 11 13 15 16 10 10 18 22 23 22 11 17 8 10 10 9 8 8 7 6 6 5 5 5 4
4 2 4 3 5 3 3 6 8 8 7 8 9 8 9 11 12 15 13 10 10 9 11 10 11 18 23 26 24 20 21 11 8 9 8 7 6 6 5 5 4 4 3 4
5 1 4 2 3 3 4 6 7 5 3 6 2 8 5 2 6 5 13 11 12 13 14 8 9 17 24 27 23 18 15 10 10 10 9 7 7 6 5 4 4 4 3 2
3 3 3 5 4 2 4 4 3 5 6 7 6 12 4 4 8 10 11 15 15 14 12 8 10 15 20 24 24 23 15 12 11 9 7 6 6 6 5 5 4 4 3 2
4 4 2 3 2 2 8 5 7 7 7 6 4 5 10 8 2 4 1 13 10 9 9 9 6 8 12 16 17 12 11 10 11 8 7 7 6 6 6 5 4 4 3 3
4 5 2 1 2 5 6 5 5 3 6 3 5 6 7 9 5 3 3 4 7 6 7 8 8 7 8 15 14 13 12 11 11 8 8 7 8 7 5 5 4 3 4 3
5 4 4 2 2 2 7 6 2 4 5 7 5 12 15 9 5 6 3 5 8 6 4 9 12 12 13 10 14 15 14 13 10 8 8 7 7 7 7 6 6 2 2 3
4 3 4 2 3 7 3 11 4 3 6 11 3 10 11 4 2 6 7 7 8 8 8 10 12 10 9 9 12 13 13 13 10 8 7 7 7 7 7 7 4 4 3 3
2 3 3 3 2 3 4 5 6 6 5 6 3 2 9 8 11 14 8 10 13 15 14 12 4 11 11 8 8 9 10 8 9 8 8 7 7 6 5 7 4 4 3 1
2 4 3 6 5 2 2 5 4 5 4 3 4 4 6 4 5 13 14 9 5 6 3 15 13 4 9 11 8 8 6 10 10 8 8 6 7 6 6 6 5 3 2 4
2 2 2 2 3 3 3 1 5 4 3 7 4 2 8 7 11 8 7 8 7 8 10 14 15 12 12 9 8 7 6 9 9 9 8 6 7 6 4 4 3 4 4 5
3 4 1 4 8 6 3 5 2 8 4 11 6 4 6 4 2 7 6 9 6 6 6 3 7 9 12 12 13 11 11 7 5 6 5 5 4 5 8 7 5 4 4 5
3 4 3 4 5 2 4 4 2 6 6 5 8 3 2 1 3 6 6 6 3 7 7 3 7 16 15 19 16 14 13 13 10 6 3 2 4 6 8 10 11 19 14 15
Wind_Direction
33 110 191 192 201 207 193 312 346 352 191 351 169 101 184 185 193 193 205 210 216 220 224 205 191 185 171 171 174 181 172 180 163 160 145 138 222 221 253 208 251 210 232 187
38 199 199 213 171 172 191 208 141 249 143 114 55 165 197 201 201 194 198 207 219 225 182 196 176 175 173 176 180 183 187 178 186 161 139 153 191 209 353 198 245 218 240 242
172 203 145 162 150 152 166 198 174 183 136 66 103 317 214 227 235 224 217 209 214 216 183 186 173 178 171 179 185 186 186 184 186 161 125 83 71 47 28 257 256 235 231 241
229 246 162 166 178 139 196 185 171 163 155 193 156 266 258 182 243 223 216 210 215 200 190 179 182 179 184 192 190 185 184 182 186 158 149 162 177 179 221 219 216 250 237 241
242 173 133 140 220 173 221 163 183 204 86 95 359 55 259 121 214 232 212 211 217 204 186 182 188 190 193 185 186 181 181 186 189 176 171 177 183 191 180 214 251 249 218 230
237 218 163 205 199 191 92 94 53 53 60 9 200 170 277 197 219 212 210 207 210 195 194 195 196 188 187 179 175 177 177 188 187 178 181 184 184 182 183 242 242 239 178 213
310 242 247 174 163 65 83 97 36 5 351 229 104 152 239 263 218 202 195 194 207 197 192 197 178 181 179 180 179 175 178 189 188 184 186 190 193 186 198 195 200 192 193 203
169 304 171 178 179 180 191 151 155 182 191 248 74 213 250 265 250 161 181 184 198 204 193 197 191 184 186 185 180 179 185 191 189 187 197 197 181 178 204 219 199 201 206 219
156 269 285 216 176 134 233 175 202 102 23 94 223 278 302 19 95 133 142 175 197 208 196 200 197 194 189 184 189 185 184 194 191 193 186 193 189 177 195 212 212 207 203 241
210 87 214 263 173 76 183 160 73 350 155 228 290 288 244 271 187 174 159 184 198 203 206 197 203 199 192 191 190 185 188 193 190 191 192 195 199 189 190 176 200 211 222 226
135 121 258 186 183 200 48 307 55 120 113 158 192 262 222 224 200 182 186 187 188 190 200 202 191 196 189 193 166 180 192 186 180 190 184 179 190 204 188 191 199 212 220 203
193 144 204 227 226 141 199 198 137 127 228 154 160 266 270 240 211 153 188 194 191 189 188 197 153 158 101 102 81 20 355 298 233 212 184 186 187 201 183 203 213 198 219 202
181 222 26 337 357 12 206 167 113 106 87 190 151 264 304 286 187 152 175 177 195 185 183 159 168 107 113 112 101 0 280 276 227 183 190 188 188 194 204 203 205 208 214 221
81 113 154 192 208 176 308 144 146 128 122 184 218 269 300 272 170 166 175 186 191 194 190 187 124 122 126 133 124 157 261 232 209 184 187 193 191 193 196 204 207 211 207 215
95 151 168 238 235 203 227 258 159 182 207 171 228 213 260 223 203 186 177 184 190 212 196 187 146 135 144 144 154 167 213 197 179 174 176 189 185 186 182 190 211 220 192 210
350 45 38 256 222 218 238 251 241 239 182 252 180 250 190 220 106 151 172 181 188 201 218 196 141 144 158 166 173 180 216 191 167 177 179 168 178 171 169 170 178 171 185 200
58 98 72 270 313 19 353 250 249 250 191 155 157 222 134 157 172 189 188 190 198 189 198 195 192 158 162 175 181 193 180 158 166 156 159 167 152 145 155 171 184 183 167 188
139 100 124 232 351 110 239 258 232 239 266 207 281 212 182 169 33 75 174 199 190 169 170 195 171 153 160 163 180 166 155 152 133 142 149 145 143 151 157 154 157 159 161 150
161 124 85 146 201 282 314 15 19 312 284 280 212 170 141 133 114 341 296 204 181 156 159 171 169 128 147 160 155 153 128 134 139 149 153 152 146 143 148 155 173 173 141 132
75 83 133 133 143 248 235 287 304 250 288 339 180 165 158 165 128 232 96 45 67 65 78 134 136 143 138 149 147 148 147 138 150 156 156 149 151 148 155 165 173 163 157 149
342 40 164 159 204 284 288 303 312 146 253 307 279 179 170 205 212 109 113 81 69 53 38 117 121 120 122 135 145 145 142 152 155 138 145 151 149 152 151 158 160 152 122 94
211 160 199 107 131 269 345 359 110 242 301 288 35 333 323 133 131 138 123 128 123 117 98 20 69 125 122 98 111 133 147 131 122 140 143 150 138 140 152 157 141 97 99 104
272 195 229 176 210 211 4 128 255 257 246 273 228 158 131 200 132 153 155 156 160 84 148 107 283 288 111 112 124 135 149 127 129 135 135 139 132 146 166 141 115 122 108 99
274 143 227 11 256 208 176 129 282 281 22 7 26 177 124 244 170 151 126 143 168 161 163 171 169 147 116 120 106 97 124 128 139 135 130 139 137 130 94 84 112 115 115 105
219 1 333 279 282 295 121 99 291 292 328 61 58 51 24 336 245 154 132 185 170 106 82 272 124 105 119 94 77 71 57 28 83 93 111 117 105 102 87 64 23 65 45 101
192 197 155 239 297 278 155 105 160 284 290 77 82 64 351 355 338 10 149 229 108 98 98 94 97 100 110 102 102 95 81 64 25 22 5 123 128 114 105 102 82 42 51 70